TimeAKDT,TemperatureF,Dew PointF,Humidity,Sea Level PressureIn,VisibilityMPH,Wind Direction,Wind SpeedMPH,Gust SpeedMPH,PrecipitationIn,Events,Conditions,WindDirDegrees,DateUTC
12:53 AM,63.0,54.0,72,29.92,10.0,SSW,21.9,36.8,N/A,,Overcast,200,2013-09-07 08:53:00
1:53 AM,62.1,54.0,75,29.94,10.0,SSW,20.7,32.2,0.00,Rain,Light Rain,200,2013-09-07 09:53:00
2:53 AM,62.1,54.0,75,29.93,10.0,SSW,24.2,32.2,0.00,Rain,Light Rain,200,2013-09-07 10:53:00
3:53 AM,62.1,54.0,75,29.92,10.0,SSW,24.2,31.1,0.00,Rain,Light Rain,200,2013-09-07 11:53:00
4:53 AM,61.0,54.0,78,29.91,10.0,SSW,26.5,39.1,0.00,,Overcast,200,2013-09-07 12:53:00
5:53 AM,62.1,54.0,75,29.90,10.0,SSW,19.6,31.1,N/A,,Mostly Cloudy,210,2013-09-07 13:53:00
6:53 AM,62.1,54.0,75,29.89,10.0,SSW,21.9,31.1,N/A,,Overcast,210,2013-09-07 14:53:00
7:53 AM,62.1,54.0,75,29.87,10.0,SSW,21.9,31.1,N/A,,Overcast,200,2013-09-07 15:53:00
8:53 AM,62.1,55.0,78,29.87,10.0,SSW,20.7,34.5,N/A,,Overcast,200,2013-09-07 16:53:00
9:53 AM,62.1,54.0,75,29.87,10.0,SSW,18.4,28.8,N/A,,Overcast,200,2013-09-07 17:53:00
10:53 AM,63.0,54.0,72,29.85,10.0,SSW,23.0,32.2,N/A,,Overcast,200,2013-09-07 18:53:00
11:53 AM,62.1,55.0,78,29.85,10.0,SSW,24.2,32.2,0.00,Rain,Light Rain,210,2013-09-07 19:53:00
12:53 PM,63.0,55.0,75,29.84,10.0,SSW,26.5,38.0,0.00,,Overcast,210,2013-09-07 20:53:00
1:53 PM,62.1,54.0,75,29.84,10.0,SSW,20.7,32.2,N/A,,Overcast,200,2013-09-07 21:53:00
2:53 PM,63.0,55.0,75,29.82,10.0,South,18.4,29.9,0.00,Rain,Light Rain,190,2013-09-07 22:53:00
3:53 PM,64.0,55.0,73,29.81,10.0,South,15.0,26.5,0.00,,Overcast,180,2013-09-07 23:53:00
4:53 PM,64.0,55.0,73,29.78,10.0,SSW,17.3,27.6,N/A,,Overcast,200,2013-09-08 00:53:00
5:53 PM,66.0,55.0,68,29.75,10.0,SSW,17.3,26.5,N/A,,Overcast,200,2013-09-08 01:53:00
6:53 PM,64.0,54.0,70,29.73,10.0,SSW,23.0,32.2,N/A,,Overcast,210,2013-09-08 02:53:00
7:53 PM,64.0,55.0,73,29.70,10.0,SSW,23.0,31.1,0.00,,Overcast,210,2013-09-08 03:53:00
8:53 PM,64.9,55.0,70,29.68,10.0,South,11.5,21.9,N/A,,Overcast,190,2013-09-08 04:53:00
9:53 PM,62.1,55.9,80,29.68,7.0,SSW,16.1,24.2,0.01,Rain,Light Rain,200,2013-09-08 05:53:00
10:53 PM,61.0,57.0,87,29.68,7.0,Variable,3.5,-,0.07,Rain,Rain,0,2013-09-08 06:53:00
11:53 PM,59.0,57.0,93,29.62,8.0,Calm,Calm,-,0.07,Rain,Light Rain,0,2013-09-08 07:53:00